Vorticity
4 6 5 7 10 25 4 -7 -15 11 7 10 15 15 9 11 3 5 1 5 4 -1 0 5 12 10 11 7 13 12 19 27 19 17 16 22 17 17 19 18 16 16 16
-0 7 6 14 19 -7 5 2 5 13 7 11 11 9 10 4 3 -2 0 6 0 10 18 -1 4 13 3 14 13 24 30 14 10 19 21 15 15 18 17 17 16 17 17
5 9 14 -3 14 -5 6 2 13 10 12 15 8 10 7 4 4 -3 3 5 13 12 -5 5 9 7 13 11 24 26 7 8 14 22 18 15 21 17 16 14 13 15 15
9 10 4 -0 10 5 4 8 10 11 7 1 8 8 1 6 7 9 2 8 4 14 4 11 9 13 15 18 26 12 4 6 22 22 15 18 19 14 12 14 14 14 13
6 11 11 7 4 6 7 13 13 5 11 13 6 7 -7 2 -1 5 1 16 15 3 9 8 12 16 16 14 19 5 3 13 25 16 15 20 13 12 11 14 16 15 14
7 8 5 7 8 8 17 9 -0 9 13 10 -1 18 8 -15 10 11 -7 16 7 9 10 13 15 12 11 20 9 6 5 21 23 14 18 16 11 9 13 15 14 14 17
9 7 9 7 8 11 15 9 4 12 8 27 0 -7 5 15 10 8 17 7 7 9 12 19 11 14 6 17 7 3 10 23 19 13 18 12 10 11 12 10 12 16 17
9 9 6 7 7 9 10 13 15 10 -5 10 -2 4 10 15 11 10 6 7 7 8 17 15 15 11 12 11 4 4 16 21 17 14 17 11 8 11 10 9 11 15 20
9 7 8 8 9 11 14 12 9 3 5 3 7 10 13 11 8 7 9 4 8 17 17 16 14 8 13 8 4 7 20 18 15 14 15 10 9 11 9 10 10 11 19
8 7 7 9 12 12 12 8 3 4 4 7 13 13 11 9 8 10 3 11 13 20 18 14 11 13 8 6 4 13 22 18 12 14 14 10 9 9 10 10 9 10 12
8 7 10 12 14 12 5 5 4 6 10 13 14 12 9 6 5 8 11 13 16 18 15 13 11 8 6 6 10 19 19 17 12 14 13 9 9 10 8 8 8 12 9
9 10 12 12 10 7 5 5 6 9 12 13 11 10 6 7 11 12 12 19 19 17 15 11 8 6 5 11 21 18 17 15 11 14 12 8 10 8 6 8 9 10 9
9 11 11 10 7 5 5 7 11 12 11 10 7 6 7 8 11 14 19 20 17 11 8 6 5 8 15 19 27 16 13 15 11 14 11 10 10 8 6 8 9 10 9
9 12 11 5 5 5 7 11 11 9 7 7 7 7 7 9 19 16 21 14 6 7 7 9 13 19 21 21 22 16 12 14 12 12 10 11 8 8 8 9 11 10 7
14 9 5 5 4 9 13 11 9 8 7 7 7 6 12 17 25 20 11 11 6 5 10 25 23 23 22 23 21 13 10 13 12 11 12 9 8 10 11 10 12 11 7
6 5 3 3 10 13 11 9 8 8 9 10 15 20 21 20 9 9 7 7 12 18 24 18 17 19 20 22 20 14 12 13 12 11 9 7 9 11 10 9 11 12 7
3 2 3 8 12 13 9 5 5 4 8 10 14 17 11 11 13 11 11 19 22 19 19 21 19 15 20 20 20 16 13 13 13 10 6 7 11 9 9 11 11 12 6
1 2 8 11 9 8 8 7 7 9 14 23 16 14 10 10 18 26 28 18 14 20 23 17 13 15 16 16 20 17 13 15 15 7 4 8 12 9 11 12 11 13 7
1 9 9 10 8 7 7 11 14 19 16 14 13 11 19 22 18 16 14 16 19 22 16 13 19 13 15 16 22 20 14 15 13 7 3 7 12 7 11 14 11 14 7
7 11 9 7 7 9 12 16 16 13 10 12 20 19 19 22 21 22 23 23 21 17 12 14 17 15 11 15 22 20 14 18 13 8 3 3 13 6 11 15 11 14 7
8 6 8 8 10 14 18 14 10 11 19 15 22 28 31 26 23 21 20 19 15 13 10 10 12 16 12 14 22 19 14 19 10 7 6 2 11 6 11 17 11 13 10
8 7 9 11 17 19 12 9 16 15 18 21 22 34 22 18 16 16 15 14 14 11 11 9 10 11 13 14 18 19 15 19 12 5 5 6 9 5 10 16 11 13 10
7 12 15 21 15 8 10 16 14 20 20 21 29 23 14 12 14 16 18 17 16 14 12 11 10 9 17 16 16 19 16 14 13 8 7 5 8 4 10 12 13 13 10
14 18 20 9 8 11 17 14 17 21 16 26 23 13 11 12 21 21 17 16 15 13 11 10 10 8 13 16 17 19 11 9 9 9 11 9 9 4 8 10 11 14 14
18 15 8 7 12 18 10 12 21 12 17 25 17 11 10 21 15 19 24 24 27 30 28 21 11 13 7 14 13 21 7 7 6 2 7 9 9 6 7 8 10 12 12
12 4 8 11 17 7 12 17 19 12 19 21 15 10 18 13 19 17 13 15 18 28 37 33 24 17 6 13 15 21 11 3 7 6 7 7 9 9 8 5 11 10 12
Height
5737 5734 5731 5727 5724 5721 5718 5714 5709 5702 5695 5688 5681 5674 5667 5661 5654 5646 5637 5629 5620 5611 5602 5592 5582 5572 5558 5548 5538 5527 5517 5505 5497 5489 5476 5464 5456 5448 5440 5434 5427 5423 5417
5727 5725 5723 5720 5717 5714 5710 5704 5697 5690 5683 5675 5669 5662 5655 5649 5641 5632 5624 5616 5608 5598 5587 5577 5566 5554 5543 5534 5524 5513 5501 5491 5482 5474 5462 5452 5442 5433 5427 5421 5414 5408 5404
5723 5720 5715 5712 5707 5703 5697 5691 5685 5678 5670 5665 5658 5652 5645 5638 5629 5621 5612 5601 5591 5581 5570 5560 5550 5540 5530 5520 5508 5498 5488 5478 5467 5456 5447 5439 5430 5422 5416 5409 5403 5398 5392
5714 5709 5706 5702 5697 5691 5685 5679 5672 5665 5660 5653 5647 5640 5632 5626 5615 5604 5595 5585 5576 5565 5554 5544 5535 5525 5515 5503 5493 5484 5475 5464 5452 5441 5433 5426 5419 5412 5405 5400 5395 5387 5382
5704 5700 5696 5691 5685 5679 5673 5666 5660 5655 5649 5642 5634 5627 5619 5610 5602 5590 5580 5570 5560 5549 5539 5530 5520 5509 5499 5490 5480 5471 5461 5450 5439 5430 5422 5416 5409 5403 5397 5390 5384 5379 5373
5693 5689 5684 5678 5673 5667 5660 5653 5648 5642 5635 5627 5619 5612 5602 5593 5583 5572 5563 5554 5544 5535 5525 5515 5504 5493 5485 5476 5467 5458 5448 5437 5428 5420 5413 5407 5401 5395 5389 5382 5375 5370 5364
5681 5676 5672 5665 5659 5653 5647 5642 5635 5628 5622 5613 5605 5598 5589 5577 5567 5557 5547 5539 5530 5521 5510 5498 5489 5480 5471 5463 5455 5445 5435 5426 5418 5411 5404 5398 5394 5388 5382 5375 5367 5360 5354
5669 5664 5658 5652 5646 5640 5634 5628 5621 5614 5609 5602 5591 5582 5572 5560 5550 5540 5532 5524 5515 5505 5493 5483 5475 5465 5457 5450 5442 5433 5423 5414 5407 5401 5395 5390 5385 5380 5374 5368 5362 5355 5347
5657 5652 5646 5640 5633 5626 5620 5614 5607 5601 5594 5585 5576 5565 5555 5545 5534 5525 5517 5508 5498 5488 5477 5468 5460 5452 5444 5437 5430 5421 5411 5403 5397 5391 5386 5382 5377 5372 5366 5361 5355 5349 5342
5644 5638 5632 5626 5619 5612 5606 5600 5593 5586 5577 5568 5557 5548 5539 5531 5520 5510 5500 5488 5480 5471 5462 5453 5445 5438 5430 5422 5415 5407 5400 5392 5387 5382 5377 5373 5369 5364 5359 5353 5348 5343 5337
5632 5625 5619 5612 5605 5599 5593 5586 5578 5570 5561 5552 5543 5532 5522 5513 5505 5494 5482 5473 5462 5454 5446 5438 5429 5422 5416 5408 5401 5394 5388 5382 5377 5373 5369 5365 5361 5357 5352 5346 5340 5335 5331
5618 5611 5605 5598 5592 5585 5578 5570 5562 5553 5544 5534 5525 5517 5506 5494 5485 5475 5464 5453 5444 5436 5431 5424 5415 5407 5399 5394 5386 5380 5376 5372 5367 5363 5360 5357 5354 5350 5346 5341 5335 5329 5323
5604 5597 5590 5584 5577 5571 5562 5554 5544 5534 5525 5517 5507 5499 5490 5476 5463 5453 5443 5435 5427 5420 5415 5407 5400 5392 5383 5377 5373 5367 5363 5361 5358 5355 5351 5349 5347 5344 5340 5335 5329 5324 5318
5588 5582 5575 5568 5561 5553 5545 5535 5526 5516 5507 5497 5488 5477 5469 5461 5448 5434 5425 5417 5410 5402 5397 5392 5383 5376 5368 5362 5358 5355 5352 5350 5348 5346 5343 5342 5339 5336 5332 5329 5324 5319 5314
5573 5567 5560 5553 5546 5537 5527 5518 5509 5498 5487 5477 5467 5456 5445 5440 5431 5418 5408 5402 5393 5384 5376 5372 5364 5358 5352 5348 5344 5341 5340 5340 5339 5337 5336 5334 5332 5329 5325 5322 5318 5314 5309
5558 5552 5544 5536 5527 5518 5510 5502 5489 5479 5469 5457 5444 5430 5424 5412 5408 5401 5392 5384 5374 5365 5359 5353 5347 5342 5337 5333 5331 5330 5329 5329 5329 5328 5328 5326 5324 5322 5318 5315 5312 5308 5305
5542 5534 5526 5517 5508 5499 5491 5484 5479 5470 5454 5442 5429 5417 5404 5394 5385 5378 5372 5363 5355 5348 5341 5336 5332 5327 5324 5321 5318 5318 5319 5319 5319 5320 5320 5319 5317 5315 5312 5309 5307 5303 5299
5524 5516 5508 5499 5490 5481 5471 5462 5452 5443 5436 5426 5412 5398 5388 5378 5367 5356 5349 5343 5338 5332 5326 5322 5319 5315 5312 5309 5307 5307 5308 5309 5310 5311 5312 5311 5310 5308 5306 5303 5301 5298 5295
5507 5499 5490 5481 5471 5462 5452 5441 5429 5417 5406 5396 5389 5379 5367 5356 5347 5338 5331 5324 5321 5317 5313 5309 5306 5303 5301 5298 5296 5296 5297 5299 5301 5302 5304 5304 5303 5302 5299 5297 5296 5294 5292
5489 5481 5472 5463 5454 5443 5431 5419 5407 5396 5385 5374 5362 5352 5345 5337 5329 5322 5313 5307 5304 5302 5299 5296 5294 5291 5289 5287 5285 5286 5288 5289 5292 5294 5296 5297 5296 5295 5293 5292 5290 5289 5288
5472 5463 5454 5444 5433 5421 5410 5399 5388 5376 5364 5353 5341 5328 5319 5314 5309 5303 5298 5293 5289 5287 5285 5283 5281 5279 5277 5276 5275 5276 5278 5280 5283 5286 5288 5289 5290 5289 5288 5286 5285 5284 5283
5454 5445 5435 5425 5414 5402 5391 5380 5368 5356 5344 5333 5322 5310 5302 5296 5291 5286 5282 5278 5274 5272 5270 5269 5268 5267 5266 5265 5265 5266 5268 5271 5274 5277 5279 5281 5282 5282 5282 5280 5280 5279 5279
5437 5427 5416 5405 5395 5384 5372 5360 5348 5336 5324 5313 5303 5296 5289 5282 5276 5271 5266 5262 5259 5256 5254 5253 5253 5253 5253 5254 5254 5256 5259 5262 5265 5268 5270 5273 5275 5276 5276 5275 5274 5274 5274
5418 5408 5398 5388 5378 5367 5355 5343 5331 5318 5308 5298 5288 5281 5275 5268 5261 5255 5249 5246 5243 5239 5237 5236 5237 5238 5240 5242 5244 5246 5249 5252 5256 5259 5262 5264 5267 5268 5269 5269 5269 5269 5270
5398 5390 5381 5371 5361 5350 5338 5326 5314 5303 5293 5283 5274 5267 5260 5253 5246 5239 5233 5228 5224 5220 5217 5217 5218 5222 5225 5229 5232 5235 5239 5242 5247 5250 5252 5255 5258 5261 5263 5264 5264 5264 5265
5382 5374 5365 5354 5344 5333 5322 5310 5299 5289 5279 5269 5261 5253 5246 5239 5232 5225 5219 5213 5207 5202 5198 5198 5200 5204 5209 5214 5218 5222 5227 5231 5235 5239 5243 5246 5249 5253 5256 5257 5258 5259 5259